Probability
0 0 0 0 0 0 0 0 0 0 0 0 0 3 13 10 10 23 42 58 45 48 55 48 55 55 58 68 65 74 74 68 68 61 52 42 32 29 23 23 16 6 6 6
0 0 0 0 0 0 0 0 0 0 0 0 0 0 13 16 13 26 39 39 52 42 42 45 45 52 55 61 61 71 77 68 58 61 58 48 39 26 26 23 19 10 6 6
0 0 0 0 0 0 0 0 0 0 0 0 0 3 10 16 10 13 19 29 42 35 35 39 48 52 52 55 58 61 81 74 61 65 48 35 42 23 29 32 29 13 10 6
0 0 0 0 0 0 0 0 0 0 0 0 0 3 13 13 13 13 23 26 29 35 35 39 42 52 58 55 55 68 71 71 71 71 55 39 32 32 39 45 39 26 10 6
0 0 0 0 0 0 0 0 0 0 0 0 0 0 13 13 19 16 23 19 32 32 26 42 42 48 52 45 58 65 71 71 74 68 58 52 35 42 42 45 45 35 19 13
0 0 0 0 0 0 0 0 0 0 0 3 0 0 3 3 10 13 19 32 42 29 29 39 48 52 52 45 55 61 68 71 68 65 65 61 55 48 42 48 48 42 35 23
0 0 0 0 0 0 0 0 6 3 3 0 0 0 0 0 3 6 19 26 23 29 29 35 52 52 55 45 52 65 71 68 71 68 65 61 65 65 65 61 61 52 32 19
0 0 0 0 0 0 0 0 0 0 0 0 0 0 3 0 3 10 13 19 23 23 32 32 42 58 61 58 65 65 71 68 68 65 68 71 74 65 61 71 71 68 61 39
0 0 0 0 0 0 0 0 0 0 0 0 0 3 3 3 3 6 13 19 19 29 29 39 58 55 65 68 71 65 71 71 71 68 71 74 77 77 77 74 71 65 61 39
0 0 0 0 0 0 0 0 0 0 3 0 0 0 6 6 6 3 19 23 32 26 42 48 58 58 65 68 71 71 74 74 74 71 68 61 84 77 77 77 71 68 65 55
0 0 0 0 0 0 0 0 0 0 0 0 0 0 0 6 6 3 10 23 39 32 42 55 58 68 77 74 74 74 77 81 81 71 74 77 81 77 74 74 77 77 71 61
0 0 0 0 0 0 0 0 0 3 19 23 10 6 0 0 0 6 3 10 35 48 58 61 61 74 77 84 81 74 87 84 81 81 84 84 81 81 84 81 84 94 90 74
0 3 3 0 0 0 0 0 0 0 16 6 3 0 3 6 6 10 16 26 35 68 61 65 74 81 77 84 87 87 87 77 74 81 81 84 84 84 90 87 90 90 90 87
0 6 10 0 3 0 0 0 0 0 0 0 3 3 6 6 13 13 23 29 42 61 81 81 94 94 94 94 94 87 84 81 77 84 87 90 94 94 97 97 94 94 94 90
0 3 0 0 0 0 0 0 0 0 0 0 3 6 13 23 29 29 26 35 52 58 58 74 87 87 87 84 84 87 87 90 90 81 81 87 87 90 94 94 94 90 90 90
13 6 0 0 0 0 0 0 0 0 0 0 3 13 29 45 39 35 35 42 42 61 65 68 77 87 87 84 87 87 87 87 81 77 74 77 77 81 81 84 84 94 94 90
6 61 19 0 0 0 0 0 0 0 0 0 6 32 42 48 48 39 45 45 55 45 58 61 65 74 77 81 81 81 81 74 68 65 61 65 68 68 71 71 74 77 81 84
19 48 81 0 10 0 3 0 0 0 0 6 39 52 65 71 58 52 52 52 52 39 42 48 61 58 52 61 65 65 58 58 55 52 52 52 52 55 55 55 58 58 61 65
10 42 39 16 3 0 0 0 0 0 0 6 35 42 45 48 45 35 35 32 32 32 32 32 39 29 32 32 32 32 32 29 29 29 35 32 35 42 35 45 45 48 48 48
3 29 23 16 3 0 0 0 0 0 6 19 35 42 52 48 39 39 26 26 26 23 26 29 26 29 26 26 26 23 23 23 23 23 26 29 29 29 29 29 32 35 35 35
6 13 16 3 0 0 0 0 0 0 29 39 39 48 58 55 55 29 23 19 16 13 13 13 16 16 19 19 16 16 13 13 13 13 13 13 13 16 16 16 19 19 19 26
0 0 10 6 0 0 0 3 16 45 58 52 45 45 45 45 29 26 19 16 13 13 13 13 13 10 10 6 6 3 0 10 10 6 6 3 10 6 6 6 6 6 6 10
0 3 3 6 6 29 26 23 32 39 52 52 45 48 42 32 23 19 16 13 13 13 10 10 3 3 3 3 3 0 0 0 0 0 0 0 3 6 6 6 3 6 6 6
0 3 3 3 6 3 10 13 19 35 45 39 35 48 23 16 19 16 13 3 3 3 0 0 0 0 0 0 0 3 3 3 3 0 3 0 0 3 3 6 3 3 3 3
0 0 3 3 6 6 10 13 19 32 29 26 42 26 16 6 13 6 6 3 3 3 3 3 3 3 0 3 3 3 3 3 3 3 3 3 3 3 3 3 3 3 0 0
3 3 3 0 6 13 19 23 29 35 23 23 26 10 0 6 10 6 3 0 0 0 0 0 0 0 0 0 0 0 0 0 0 0 0 0 0 0 0 0 3 0 0 0
Height
5887 5888 5887 5887 5888 5888 5887 5886 5884 5881 5878 5875 5870 5866 5862 5858 5855 5851 5847 5843 5840 5836 5835 5835 5835 5837 5838 5841 5844 5847 5851 5854 5858 5861 5864 5867 5870 5872 5874 5876 5877 5878 5879 5880
5885 5885 5886 5886 5886 5886 5885 5884 5882 5879 5876 5873 5868 5865 5861 5857 5854 5851 5847 5843 5840 5837 5835 5835 5835 5835 5837 5839 5842 5845 5849 5852 5855 5859 5862 5866 5868 5871 5873 5875 5876 5877 5878 5879
5882 5884 5884 5885 5884 5884 5883 5882 5879 5877 5874 5871 5867 5863 5859 5855 5853 5851 5847 5844 5840 5837 5835 5834 5834 5835 5836 5838 5841 5844 5847 5850 5853 5857 5861 5864 5866 5869 5872 5873 5875 5877 5878 5878
5879 5881 5882 5882 5882 5882 5881 5879 5877 5875 5872 5869 5866 5861 5857 5854 5852 5850 5848 5844 5841 5838 5836 5835 5834 5835 5836 5837 5839 5842 5845 5849 5851 5855 5859 5862 5865 5868 5870 5872 5874 5876 5877 5878
5875 5877 5879 5879 5880 5879 5878 5876 5874 5871 5868 5864 5860 5861 5857 5855 5852 5850 5848 5845 5842 5839 5837 5835 5834 5835 5835 5837 5839 5841 5845 5848 5851 5854 5858 5861 5864 5867 5869 5871 5873 5875 5876 5877
5872 5874 5876 5877 5877 5876 5875 5873 5871 5868 5863 5857 5857 5859 5857 5855 5853 5851 5848 5845 5842 5839 5837 5836 5835 5835 5836 5837 5839 5842 5845 5848 5850 5854 5857 5860 5863 5865 5867 5870 5872 5873 5874 5876
5868 5870 5871 5873 5873 5873 5873 5871 5869 5867 5862 5857 5857 5858 5857 5854 5853 5851 5848 5846 5842 5840 5839 5837 5837 5836 5837 5838 5840 5842 5844 5847 5850 5853 5856 5859 5861 5864 5866 5868 5870 5872 5873 5874
5865 5867 5868 5868 5869 5870 5870 5869 5868 5865 5863 5861 5858 5855 5854 5852 5852 5850 5848 5846 5844 5842 5840 5839 5838 5838 5838 5839 5840 5842 5844 5847 5850 5852 5855 5857 5860 5862 5864 5866 5868 5870 5871 5872
5862 5864 5865 5864 5866 5867 5867 5866 5866 5863 5862 5860 5858 5852 5851 5850 5849 5848 5848 5846 5844 5843 5841 5840 5840 5840 5840 5841 5841 5843 5845 5847 5849 5852 5854 5856 5858 5860 5862 5864 5866 5867 5868 5869
5858 5860 5861 5861 5863 5863 5863 5863 5862 5861 5859 5858 5856 5852 5849 5847 5848 5847 5846 5845 5844 5843 5842 5841 5841 5841 5841 5841 5842 5843 5845 5847 5849 5851 5853 5855 5857 5858 5860 5862 5863 5864 5865 5866
5855 5856 5858 5858 5858 5859 5859 5859 5858 5858 5857 5856 5855 5853 5848 5846 5847 5846 5845 5844 5843 5843 5842 5841 5841 5841 5841 5841 5842 5843 5844 5846 5848 5849 5851 5853 5855 5856 5858 5859 5860 5861 5862 5862
5850 5852 5852 5854 5854 5854 5854 5854 5854 5854 5854 5853 5853 5853 5847 5845 5844 5845 5844 5843 5842 5842 5841 5841 5841 5840 5841 5841 5842 5842 5844 5845 5846 5848 5849 5851 5852 5853 5854 5855 5856 5857 5857 5858
5845 5846 5847 5849 5851 5849 5847 5848 5849 5849 5849 5849 5850 5849 5843 5843 5841 5841 5841 5841 5841 5840 5840 5840 5840 5840 5839 5840 5841 5841 5842 5843 5844 5845 5847 5848 5849 5850 5851 5851 5852 5852 5852 5853
5837 5839 5841 5844 5844 5842 5840 5842 5842 5843 5845 5846 5845 5843 5839 5839 5839 5837 5838 5838 5838 5838 5838 5838 5838 5838 5838 5839 5839 5839 5840 5839 5839 5841 5843 5844 5845 5845 5846 5846 5846 5846 5847 5847
5830 5832 5834 5837 5838 5837 5837 5838 5839 5838 5839 5842 5841 5839 5837 5836 5836 5835 5835 5836 5836 5836 5836 5835 5835 5835 5835 5836 5837 5837 5837 5838 5838 5838 5839 5838 5838 5839 5840 5840 5840 5840 5840 5840
5822 5825 5828 5829 5832 5833 5833 5834 5835 5835 5836 5837 5836 5834 5832 5832 5831 5832 5832 5832 5832 5832 5832 5832 5832 5832 5832 5832 5833 5833 5834 5834 5834 5834 5833 5833 5833 5834 5834 5834 5833 5833 5832 5832
5812 5816 5820 5823 5826 5826 5828 5829 5829 5830 5831 5832 5830 5829 5827 5828 5828 5828 5829 5828 5828 5828 5829 5829 5829 5829 5828 5828 5829 5829 5829 5829 5829 5828 5827 5826 5826 5826 5826 5826 5825 5825 5824 5823
5803 5806 5811 5816 5819 5819 5824 5823 5824 5824 5825 5825 5824 5823 5823 5823 5824 5824 5824 5824 5824 5824 5824 5824 5824 5824 5824 5824 5824 5823 5823 5823 5823 5822 5821 5820 5819 5819 5818 5816 5816 5816 5815 5814
5794 5797 5804 5809 5811 5812 5814 5814 5816 5817 5818 5818 5818 5817 5817 5817 5818 5819 5819 5819 5819 5819 5819 5819 5819 5818 5818 5818 5818 5817 5817 5816 5815 5815 5814 5812 5811 5810 5809 5809 5808 5806 5805 5804
5786 5789 5795 5801 5804 5806 5808 5806 5808 5811 5811 5811 5812 5812 5812 5812 5813 5815 5814 5814 5814 5814 5813 5813 5813 5812 5812 5812 5811 5810 5809 5808 5807 5806 5805 5804 5802 5801 5800 5799 5798 5796 5795 5793
5780 5783 5786 5792 5796 5798 5799 5800 5802 5804 5804 5805 5805 5806 5807 5807 5808 5808 5808 5808 5808 5808 5807 5807 5807 5806 5805 5805 5804 5803 5802 5800 5799 5798 5796 5795 5793 5792 5790 5789 5787 5786 5784 5782
5773 5776 5780 5785 5789 5791 5791 5792 5793 5795 5796 5797 5798 5799 5800 5800 5800 5801 5801 5802 5802 5801 5801 5800 5800 5799 5798 5797 5796 5795 5794 5792 5790 5789 5787 5785 5784 5782 5780 5779 5777 5775 5773 5771
5764 5769 5772 5775 5780 5782 5783 5784 5783 5787 5790 5792 5792 5794 5794 5794 5795 5795 5795 5795 5795 5795 5794 5794 5793 5792 5791 5790 5789 5787 5785 5783 5781 5779 5778 5776 5774 5772 5770 5768 5767 5765 5763 5760
5756 5762 5764 5767 5770 5773 5776 5778 5779 5782 5785 5786 5787 5788 5788 5788 5788 5788 5788 5788 5788 5788 5787 5786 5785 5785 5783 5782 5781 5779 5777 5775 5773 5770 5768 5767 5765 5762 5760 5758 5756 5753 5751 5748
5751 5756 5759 5762 5765 5767 5770 5772 5774 5776 5778 5779 5781 5782 5782 5782 5782 5782 5781 5781 5781 5780 5780 5779 5778 5776 5775 5774 5772 5770 5768 5766 5763 5761 5759 5757 5754 5752 5750 5748 5745 5742 5739 5735
5750 5753 5756 5757 5759 5761 5763 5765 5768 5770 5772 5773 5774 5775 5775 5775 5775 5775 5775 5774 5773 5773 5771 5770 5769 5768 5766 5764 5762 5760 5758 5756 5754 5751 5749 5746 5743 5741 5738 5735 5732 5728 5725 5722
Wind_Speed
11 8 7 6 8 11 12 12 14 15 20 20 20 19 18 19 21 20 19 16 15 12 9 9 10 13 15 17 20 20 20 19 18 16 15 14 12 10 9 8 7 6 4 4
11 8 7 7 11 11 11 13 15 17 19 18 18 18 19 18 20 20 19 17 15 12 10 7 8 9 13 16 17 18 18 18 18 17 15 13 12 10 9 8 7 6 5 4
11 7 7 12 13 11 11 14 16 17 16 15 16 17 19 19 18 18 18 17 15 12 9 6 6 7 10 13 16 16 17 17 17 16 14 13 11 10 9 9 8 7 6 5
12 9 11 14 13 12 13 15 16 15 13 13 13 14 18 22 19 19 18 17 16 13 9 5 4 6 8 11 14 15 15 15 15 14 14 12 11 11 10 10 9 8 6 5
11 9 12 14 13 13 15 15 14 13 14 16 11 10 17 19 21 21 19 17 15 13 9 5 2 4 5 8 11 13 13 13 13 13 13 13 12 11 10 10 10 8 7 6
13 13 14 14 14 14 16 14 12 17 20 17 10 9 16 17 20 20 18 16 14 12 9 5 2 1 4 6 8 10 12 13 13 13 13 12 12 12 11 10 10 8 8 7
12 13 13 15 15 13 15 15 14 16 21 21 14 8 14 16 18 18 17 15 12 10 8 6 5 2 1 4 7 9 10 11 12 13 12 12 12 12 11 11 10 9 8 8
12 12 12 15 15 13 15 15 16 18 17 18 16 13 13 16 17 16 15 13 10 9 8 6 4 3 1 3 5 7 9 10 11 12 12 12 12 11 11 11 10 10 10 10
13 14 15 14 13 15 16 16 16 18 16 15 15 15 15 14 16 16 15 12 10 8 7 5 3 3 1 1 3 5 7 9 10 11 11 11 11 11 11 11 11 11 11 11
15 17 15 16 16 17 17 15 15 15 14 13 14 17 17 14 18 18 16 13 9 7 6 5 3 2 1 1 2 5 7 9 10 10 10 11 11 12 12 12 12 13 13 13
19 20 19 20 18 17 19 16 16 15 14 13 15 18 20 17 17 18 15 13 11 8 7 6 5 4 3 3 4 6 7 9 10 11 11 11 12 12 12 13 13 14 15 15
24 24 24 22 21 22 21 17 17 17 15 14 14 20 20 17 15 15 15 14 12 10 8 7 7 6 5 5 5 6 8 8 10 11 12 12 13 13 14 14 15 16 17 18
26 28 27 23 24 25 22 18 18 17 16 14 14 20 21 19 16 14 15 14 12 11 10 9 9 8 7 8 7 8 8 9 10 11 12 14 14 15 16 17 18 18 19 20
29 31 30 25 25 25 21 16 16 16 15 15 16 19 23 20 16 14 14 14 13 13 13 12 11 10 10 11 11 11 12 12 12 13 14 16 17 18 18 19 20 21 22 23
32 33 32 28 27 25 20 16 16 15 14 16 18 21 24 22 20 17 16 16 15 15 14 14 14 13 12 12 13 14 15 15 15 16 17 18 18 19 20 22 23 23 24 25
34 34 32 29 26 23 21 19 18 17 16 17 20 23 24 23 21 18 17 17 17 16 16 15 16 16 16 16 15 16 17 18 19 19 21 21 22 23 23 24 25 26 27 27
37 35 34 30 26 25 23 21 19 19 20 20 22 24 24 22 20 18 18 19 18 18 17 17 17 18 19 19 20 20 20 21 22 23 24 25 26 27 28 28 29 30 31 31
38 36 34 32 28 28 23 24 23 22 22 22 24 26 24 22 22 22 21 21 20 20 19 19 19 20 21 22 23 24 25 25 26 27 28 28 29 30 30 31 33 34 35 35
38 37 34 31 30 28 26 25 23 22 23 24 25 25 25 24 24 23 22 22 22 21 21 21 22 22 22 24 25 27 28 29 30 31 31 32 32 32 32 33 35 36 37 38
37 34 34 32 30 28 27 27 24 24 25 25 25 24 24 24 23 21 22 22 22 23 23 23 24 23 24 25 26 28 29 30 32 33 34 35 35 35 35 36 37 37 37 38
35 32 32 31 30 31 31 30 28 27 26 24 23 24 24 23 22 22 23 23 23 23 24 24 25 25 26 27 28 29 30 30 31 33 34 35 36 37 37 36 37 37 39 39
34 31 31 31 31 33 33 32 30 26 24 23 23 24 22 21 22 22 23 23 24 25 25 26 26 27 27 28 29 30 31 31 32 33 34 36 36 36 36 36 37 38 38 39
36 35 33 34 35 34 34 30 25 22 23 24 24 24 24 23 23 24 24 25 26 26 27 27 28 28 28 29 30 31 32 32 33 33 34 35 36 36 36 36 36 37 38 39
33 33 30 29 31 31 31 29 27 25 24 24 26 26 26 26 25 25 25 26 26 27 27 27 28 28 29 30 31 31 32 33 34 34 34 35 35 35 36 37 38 39 40 41
23 25 24 26 26 25 27 25 24 26 26 26 26 26 26 26 26 25 25 26 27 28 29 29 30 31 31 31 32 33 33 34 34 35 35 35 36 37 37 38 39 41 42 43
20 22 24 24 21 20 22 22 23 24 25 24 24 25 25 25 25 25 25 27 28 28 29 30 31 32 32 33 34 35 35 35 36 37 37 37 38 39 40 41 42 43 45 47
Wind_Direction
288 294 310 320 308 298 305 313 313 312 314 321 328 334 335 342 345 342 339 337 332 320 300 277 256 239 231 225 225 227 229 229 231 229 226 229 229 226 223 221 218 215 212 213
277 284 295 287 284 296 312 315 314 313 315 323 331 334 333 341 348 345 343 342 340 334 319 293 265 245 230 223 224 224 225 225 225 227 226 223 220 219 212 210 210 208 206 202
270 266 276 283 290 300 309 306 306 311 320 326 328 325 327 340 347 348 346 346 346 342 333 302 263 242 231 225 220 223 225 222 221 220 220 218 215 211 207 207 208 205 202 198
256 241 248 268 279 290 298 297 302 312 321 313 307 315 323 337 348 349 346 346 348 347 340 320 262 232 227 219 217 218 219 216 214 216 216 212 209 208 208 204 205 204 202 199
246 244 254 264 275 284 291 296 304 310 304 290 299 340 320 332 341 343 344 343 345 349 346 340 285 231 222 213 212 210 208 206 209 212 209 208 209 209 205 203 206 208 208 208
245 235 246 261 271 283 295 304 310 312 310 308 339 352 313 328 336 337 340 342 342 349 354 6 13 209 208 213 205 201 201 205 207 205 206 208 209 207 205 206 211 216 220 224
247 240 240 249 264 278 290 301 311 312 319 333 348 319 296 321 329 333 336 340 341 347 357 2 16 39 179 198 194 196 198 201 202 201 201 205 208 208 208 211 217 224 231 237
246 255 258 258 257 269 280 292 300 302 309 315 313 295 302 318 323 328 332 338 342 349 359 4 5 14 107 170 183 194 201 203 203 202 203 208 212 213 214 217 224 232 237 242
237 251 263 267 263 267 277 280 284 293 302 304 302 303 300 306 322 329 329 331 332 339 352 1 13 25 20 197 196 198 200 201 202 205 209 216 220 223 226 228 234 240 245 251
231 240 257 267 259 268 273 276 280 285 291 299 303 304 300 309 321 324 323 323 322 324 333 341 342 349 336 279 229 215 212 211 212 216 222 225 229 233 234 238 244 250 255 259
241 238 240 252 256 261 267 273 282 282 279 277 293 302 303 308 314 316 316 316 317 317 313 314 314 311 306 279 252 236 231 229 229 231 232 233 235 239 242 247 252 257 261 265
242 242 242 247 257 261 261 263 270 276 279 272 274 284 291 296 305 310 309 306 304 305 302 300 295 290 286 285 272 253 246 247 245 242 242 242 245 248 252 256 259 263 266 270
232 239 244 246 252 258 255 255 259 264 271 270 265 276 284 288 293 298 302 302 298 295 287 287 288 286 276 276 274 267 261 258 253 255 256 255 255 257 259 262 265 268 270 273
228 237 240 240 251 262 264 261 260 260 260 261 266 273 283 289 290 292 296 299 296 290 289 285 281 279 278 276 273 271 269 265 263 263 264 262 262 263 265 267 269 271 273 275
231 236 241 241 245 258 268 273 268 266 264 260 268 271 276 280 284 289 293 294 291 287 283 285 282 278 276 274 274 273 272 270 271 270 271 269 267 269 270 271 272 273 275 276
230 233 237 240 240 251 258 260 260 263 264 264 266 269 270 275 281 286 290 290 287 287 284 281 282 281 280 279 280 277 276 274 273 273 273 273 274 273 273 274 277 278 278 278
228 229 233 236 238 245 251 253 256 261 262 263 264 266 271 275 280 283 285 288 288 286 285 281 279 279 280 280 282 283 283 280 279 278 277 276 278 278 277 276 276 277 277 278
227 228 230 234 237 243 245 245 247 251 254 258 264 266 271 274 277 278 282 284 286 286 284 282 281 282 280 279 280 281 282 282 281 281 281 282 281 281 280 279 279 278 278 278
225 227 229 233 239 245 245 244 246 249 253 260 263 265 268 273 275 276 279 280 282 284 283 282 282 284 284 283 281 280 281 281 282 281 280 282 281 281 282 282 282 281 279 280
232 231 226 229 236 240 244 246 246 250 251 258 263 264 268 271 274 275 276 277 279 282 284 283 282 284 285 284 284 283 282 283 282 282 281 282 281 282 282 282 282 282 282 283
235 232 229 230 236 241 245 250 250 250 253 258 263 266 272 273 275 275 276 277 278 281 283 284 284 285 286 285 285 284 284 285 285 285 284 285 285 283 284 285 285 284 283 283
229 231 233 234 235 241 247 251 248 249 253 256 264 269 271 273 274 276 278 279 280 282 284 285 285 285 286 286 286 286 286 286 287 287 285 285 285 284 285 285 286 286 286 286
228 229 230 230 233 239 246 249 245 249 256 262 265 270 272 272 274 277 279 281 283 284 284 284 285 285 286 286 287 287 286 287 288 288 288 287 287 286 286 287 287 288 289 289
226 227 230 229 229 236 242 248 253 257 261 264 266 269 272 274 276 277 279 282 283 282 284 285 286 286 286 286 286 286 287 288 288 288 287 287 288 289 289 290 291 291 292 292
229 231 234 236 240 244 248 250 251 253 259 264 267 269 272 275 277 279 280 281 282 283 284 285 286 286 286 286 287 288 289 290 290 290 291 291 291 291 291 292 292 293 293 294
244 245 243 242 243 246 249 252 254 255 261 265 268 271 273 275 277 280 281 282 282 284 285 286 287 288 287 288 288 289 289 290 291 291 291 291 291 292 292 293 293 294 294 295